• în România
  • Lista ţărilor
  • Pe 7 zile
  • Temperatura apei
  • Hartă satelitară
  • Meteo pe hartă
  • Widget-uri
  • user-avatar
    Intrare

    Meteo pe oră la Canillo

    Astăzi, 23 Aprilie, Luni

    Timp Temperatura Precipitaţii Vânt Presiune Umiditate
    00:00 +7°C° 0 mm 1 m/s 620 mmHg 79%
    01:00 +7°C° 0 mm 1 m/s 620 mmHg 78%
    02:00 +7°C° 0 mm 1 m/s 619 mmHg 76%
    03:00 +7°C° 0 mm 1 m/s 619 mmHg 75%
    04:00 +7°C° 0 mm 1 m/s 620 mmHg 73%
    05:00 +7°C° 0 mm 1 m/s 620 mmHg 72%
    06:00 +7°C° 0 mm 1 m/s 620 mmHg 70%
    07:00 +10°C° 0 mm 1 m/s 621 mmHg 63%
    08:00 +12°C° 0 mm 1 m/s 622 mmHg 57%
    09:00 +14°C° 0 mm 1 m/s 623 mmHg 50%
    10:00 +15°C° 0,1 mm 2 m/s 624 mmHg 50%
    11:00 +16°C° 0,1 mm 2 m/s 624 mmHg 50%
    12:00 +16°C° 0,1 mm 2 m/s 624 mmHg 49%
    13:00 +15°C° 0,3 mm 2 m/s 624 mmHg 53%
    14:00 +15°C° 0,3 mm 2 m/s 623 mmHg 57%
    15:00 +14°C° 0,3 mm 1 m/s 623 mmHg 61%
    16:00 +13°C° 0,2 mm 1 m/s 622 mmHg 65%
    17:00 +12°C° 0,2 mm 1 m/s 622 mmHg 70%
    18:00 +11°C° 0,2 mm 1 m/s 621 mmHg 75%
    19:00 +10°C° 0,2 mm 1 m/s 621 mmHg 77%
    20:00 +8°C° 0,2 mm 0 m/s 621 mmHg 78%
    21:00 +8°C° 0,2 mm 0 m/s 621 mmHg 80%
    22:00 +8°C° 0,2 mm 1 m/s 621 mmHg 79%
    23:00 +8°C° 0,2 mm 1 m/s 621 mmHg 79%

    Mâine, 24 Aprilie, Marţi

    Timp Temperatura Precipitaţii Vânt Presiune Umiditate
    00:00 +8°C° 0,2 mm 1 m/s 621 mmHg 78%
    01:00 +8°C° 0,1 mm 1 m/s 621 mmHg 76%
    02:00 +8°C° 0,1 mm 1 m/s 620 mmHg 75%
    03:00 +8°C° 0,1 mm 1 m/s 620 mmHg 73%
    04:00 +8°C° 0 mm 1 m/s 620 mmHg 72%
    05:00 +8°C° 0 mm 1 m/s 620 mmHg 72%
    06:00 +8°C° 0 mm 1 m/s 621 mmHg 71%
    07:00 +10°C° 0 mm 1 m/s 622 mmHg 64%
    08:00 +13°C° 0 mm 1 m/s 623 mmHg 58%
    09:00 +15°C° 0 mm 1 m/s 624 mmHg 51%
    10:00 +16°C° 0 mm 2 m/s 624 mmHg 48%
    11:00 +17°C° 0 mm 2 m/s 624 mmHg 45%
    12:00 +18°C° 0 mm 2 m/s 624 mmHg 42%
    13:00 +18°C° 0,2 mm 2 m/s 624 mmHg 44%
    14:00 +17°C° 0,2 mm 2 m/s 624 mmHg 46%
    15:00 +17°C° 0,2 mm 2 m/s 623 mmHg 48%
    16:00 +16°C° 0,3 mm 2 m/s 623 mmHg 55%
    17:00 +14°C° 0,3 mm 1 m/s 622 mmHg 62%
    18:00 +13°C° 0,3 mm 1 m/s 621 mmHg 70%
    19:00 +12°C° 0,2 mm 1 m/s 621 mmHg 72%
    20:00 +11°C° 0,2 mm 1 m/s 621 mmHg 75%
    21:00 +8°C° 0,2 mm 0 m/s 621 mmHg 77%
    22:00 +9°C° 0,1 mm 1 m/s 620 mmHg 77%
    23:00 +9°C° 0,1 mm 1 m/s 620 mmHg 77%

    Poimâine, 25 Aprilie, Miercuri

    Timp Temperatura Precipitaţii Vânt Presiune Umiditate
    00:00 +8°C° 0,1 mm 1 m/s 620 mmHg 76%
    01:00 +8°C° 0,1 mm 1 m/s 620 mmHg 75%
    02:00 +8°C° 0,1 mm 1 m/s 620 mmHg 73%
    03:00 +8°C° 0,1 mm 1 m/s 619 mmHg 72%
    04:00 +8°C° 0 mm 1 m/s 620 mmHg 72%
    05:00 +8°C° 0 mm 1 m/s 620 mmHg 72%
    06:00 +9°C° 0 mm 1 m/s 620 mmHg 72%
    07:00 +11°C° 0,1 mm 1 m/s 621 mmHg 67%
    08:00 +12°C° 0,1 mm 1 m/s 622 mmHg 62%
    09:00 +14°C° 0,1 mm 2 m/s 623 mmHg 57%
    10:00 +15°C° 0,3 mm 2 m/s 623 mmHg 56%
    11:00 +16°C° 0,3 mm 2 m/s 624 mmHg 55%
    12:00 +16°C° 0,3 mm 2 m/s 624 mmHg 53%
    13:00 +16°C° 0,5 mm 2 m/s 623 mmHg 58%
    14:00 +15°C° 0,5 mm 2 m/s 623 mmHg 62%
    15:00 +14°C° 0,5 mm 2 m/s 622 mmHg 67%
    16:00 +13°C° 0,6 mm 1 m/s 622 mmHg 72%
    17:00 +12°C° 0,6 mm 1 m/s 621 mmHg 77%
    18:00 +11°C° 0,6 mm 1 m/s 621 mmHg 82%
    19:00 +11°C° 0,4 mm 1 m/s 621 mmHg 85%
    20:00 +10°C° 0,4 mm 1 m/s 621 mmHg 87%
    21:00 +9°C° 0,4 mm 1 m/s 621 mmHg 90%
    22:00 +9°C° 0,1 mm 1 m/s 621 mmHg 91%
    23:00 +8°C° 0,1 mm 1 m/s 620 mmHg 91%

    26 Aprilie, Joi

    Timp Temperatura Precipitaţii Vânt Presiune Umiditate
    00:00 +8°C° 0,1 mm 1 m/s 620 mmHg 92%
    01:00 +8°C° 0,1 mm 1 m/s 620 mmHg 92%
    02:00 +8°C° 0,1 mm 1 m/s 619 mmHg 92%
    03:00 +7°C° 0,1 mm 1 m/s 619 mmHg 92%
    04:00 +7°C° 0,1 mm 1 m/s 619 mmHg 92%
    05:00 +7°C° 0,1 mm 2 m/s 619 mmHg 91%
    06:00 +7°C° 0,1 mm 2 m/s 619 mmHg 90%
    07:00 +8°C° 0,1 mm 2 m/s 620 mmHg 86%
    08:00 +9°C° 0,1 mm 2 m/s 620 mmHg 81%
    09:00 +10°C° 0,1 mm 2 m/s 621 mmHg 77%
    10:00 +10°C° 0,1 mm 2 m/s 621 mmHg 74%
    11:00 +12°C° 0,1 mm 2 m/s 621 mmHg 71%
    12:00 +12°C° 0,1 mm 2 m/s 621 mmHg 69%
    13:00 +12°C° 0,2 mm 2 m/s 620 mmHg 71%
    14:00 +12°C° 0,2 mm 2 m/s 620 mmHg 74%
    15:00 +10°C° 0,2 mm 2 m/s 620 mmHg 76%
    16:00 +10°C° 0,2 mm 2 m/s 619 mmHg 79%
    17:00 +9°C° 0,2 mm 2 m/s 619 mmHg 81%
    18:00 +10°C° 0,2 mm 1 m/s 619 mmHg 84%
    19:00 +9°C° 0 mm 1 m/s 619 mmHg 86%
    20:00 +8°C° 0 mm 1 m/s 619 mmHg 89%
    21:00 +7°C° 0 mm 1 m/s 618 mmHg 91%
    22:00 +6°C° 0 mm 1 m/s 618 mmHg 91%
    23:00 +6°C° 0 mm 1 m/s 617 mmHg 91%

    27 Aprilie, Vineri

    Timp Temperatura Precipitaţii Vânt Presiune Umiditate
    00:00 +5°C° 0 mm 1 m/s 617 mmHg 91%
    01:00 +5°C° 0 mm 1 m/s 617 mmHg 91%
    02:00 +5°C° 0 mm 1 m/s 616 mmHg 91%
    03:00 +3°C° 0 mm 0 m/s 616 mmHg 91%
    04:00 +5°C° 0 mm 1 m/s 616 mmHg 90%
    05:00 +6°C° 0 mm 1 m/s 616 mmHg 89%
    06:00 +6°C° 0 mm 1 m/s 616 mmHg 88%
    07:00 +8°C° 0 mm 1 m/s 617 mmHg 78%
    08:00 +10°C° 0 mm 1 m/s 617 mmHg 68%
    09:00 +13°C° 0 mm 2 m/s 618 mmHg 58%
    10:00 +14°C° 0 mm 2 m/s 618 mmHg 55%
    11:00 +13°C° 0 mm 3 m/s 618 mmHg 52%
    12:00 +14°C° 0 mm 3 m/s 618 mmHg 49%
    13:00 +14°C° 0,3 mm 3 m/s 618 mmHg 52%
    14:00 +14°C° 0,3 mm 3 m/s 617 mmHg 55%
    15:00 +14°C° 0,3 mm 3 m/s 617 mmHg 58%
    16:00 +12°C° 0,3 mm 3 m/s 616 mmHg 64%
    17:00 +11°C° 0,3 mm 3 m/s 615 mmHg 71%
    18:00 +10°C° 0,3 mm 2 m/s 614 mmHg 77%
    19:00 +9°C° 0,3 mm 3 m/s 614 mmHg 81%
    20:00 +8°C° 0,3 mm 3 m/s 614 mmHg 85%
    21:00 +5°C° 0,3 mm 3 m/s 614 mmHg 89%
    22:00 +6°C° 0,3 mm 2 m/s 613 mmHg 89%
    23:00 +6°C° 0,3 mm 2 m/s 613 mmHg 88%

    28 Aprilie, Sâmbătă

    Timp Temperatura Precipitaţii Vânt Presiune Umiditate
    00:00 +5°C° 0,3 mm 2 m/s 613 mmHg 88%
    01:00 +5°C° 0 mm 2 m/s 612 mmHg 89%
    02:00 +5°C° 0 mm 2 m/s 612 mmHg 89%
    03:00 +5°C° 0 mm 2 m/s 612 mmHg 90%
    04:00 +6°C° 0,1 mm 1 m/s 612 mmHg 90%
    05:00 +6°C° 0,1 mm 1 m/s 613 mmHg 91%
    06:00 +6°C° 0,1 mm 1 m/s 613 mmHg 91%
    07:00 +6°C° 0 mm 1 m/s 613 mmHg 87%
    08:00 +6°C° 0 mm 2 m/s 614 mmHg 83%
    09:00 +7°C° 0 mm 2 m/s 614 mmHg 78%
    10:00 +7°C° 0,2 mm 2 m/s 614 mmHg 77%
    11:00 +7°C° 0,2 mm 2 m/s 614 mmHg 77%
    12:00 +7°C° 0,2 mm 2 m/s 614 mmHg 76%
    13:00 +7°C° 1 mm 2 m/s 614 mmHg 78%
    14:00 +6°C° 1 mm 2 m/s 614 mmHg 81%
    15:00 +5°C° 1 mm 2 m/s 613 mmHg 83%
    16:00 +5°C° 1,2 mm 2 m/s 613 mmHg 86%
    17:00 +4°C° 1,2 mm 2 m/s 613 mmHg 88%
    18:00 +3°C° 1,2 mm 2 m/s 613 mmHg 90%
    19:00 +3°C° 1,1 mm 2 m/s 613 mmHg 92%
    20:00 +2°C° 1,1 mm 2 m/s 613 mmHg 93%
    21:00 +2°C° 1,1 mm 1 m/s 613 mmHg 95%
    22:00 +2°C° 1,4 mm 1 m/s 613 mmHg 95%
    23:00 +2°C° 1,4 mm 1 m/s 612 mmHg 95%
    Arată mai mult